Content
SEND FEEDBACK

Daily
Averages
Monthly
Summary
France

CAEN, FRANCE


Home > Europe > France
Elevation: 220 feet     Latitude: 49 11N     Longitude: 000 27W

WEATHER
 
SELECT A DAY
Number of Records: 215,205;   Date Range: 7/1/96 - 7/23/14
 
SHARE

PRINT THIS DATA

[ ← Previous Day ]
WEATHER ALMANAC - JUNE 29, 2013
[ Next Day → ]
[ °C ]   °F
We're sorry. There is no daily almanac available for Caen, France on June 29, 2013.
WEATHER BY HOUR - JUNE 29, 2013
[ °C ]   °F
Local TimeTemperatureDewpointHumidityBarometerVisibilityWind DirectionWind SpeedGust SpeedPrecipitationEventsConditions
12:30 AM57.2 °F53.6 °F88 %30.21 in6.2 miWest (270°)13.8 mphOvercast
1:00 AM57.2 °F53.6 °F88 %30.21 in6.2 miWest (270°)13.8 mphOvercast
1:30 AM57.2 °F53.6 °F88 %30.21 in6.2 miWest (270°)13.8 mphOvercast
2:00 AM56.0 °F54.0 °F90 %30.22 in11.0 miWest (280°)15.0 mphClear
2:00 AM57.2 °F53.6 °F88 %30.21 in6.2 miWest (280°)15.0 mphOvercast
2:30 AM57.2 °F53.6 °F88 %30.18 in6.2 miWest (270°)17.3 mphOvercast
3:00 AM57.2 °F55.4 °F94 %30.18 in4.3 miWest (280°)17.3 mphRainLight Rain
3:30 AM55.4 °F55.4 °F100 %30.18 in3.7 miWest (270°)15.0 mphDrizzle
4:00 AM57.2 °F55.4 °F94 %30.18 in3.7 miWest (280°)12.7 mphOvercast
4:30 AM57.2 °F55.4 °F94 %30.18 in4.3 miWest (280°)13.8 mphOvercast
5:00 AM57.2 °F55.4 °F94 %30.18 in1.8 miWNW (290°)12.7 mphRainLight Rain
5:30 AM57.2 °F55.4 °F94 %30.18 inWest (280°)10.4 mphLight Drizzle
6:00 AM57.2 °F55.4 °F94 %30.18 in6.2 miWest (280°)11.5 mphOvercast
6:30 AM57.2 °F55.4 °F94 %30.18 in6.2 miWNW (290°)11.5 mphOvercast
7:00 AM57.2 °F55.4 °F94 %30.18 in6.2 miWest (280°)10.4 mphOvercast
7:30 AM57.2 °F55.4 °F94 %30.18 in6.2 miWNW (290°)10.4 mphOvercast
8:00 AM58.0 °F56.0 °F90 %30.22 in12.0 miWNW (300°)11.5 mphOvercast
8:00 AM57.2 °F55.4 °F94 %30.21 in6.2 miWNW (300°)11.5 mphOvercast
8:30 AM59.0 °F57.2 °F94 %30.21 in6.2 miWNW (290°)13.8 mphOvercast
9:00 AM59.0 °F57.2 °F94 %30.21 in6.2 miWNW (300°)12.7 mphOvercast
9:30 AM59.0 °F57.2 °F94 %30.24 in6.2 miNW (310°)11.5 mphOvercast
10:00 AM59.0 °F57.2 °F94 %30.24 in6.2 miNW (310°)10.4 mphOvercast
10:30 AM60.8 °F57.2 °F88 %30.24 in6.2 miNW (310°)11.5 mphOvercast
11:00 AM62.6 °F57.2 °F82 %30.27 in6.2 miNW (320°)13.8 mphOvercast
11:30 AM62.6 °F57.2 °F82 %30.27 in6.2 miNNW (330°)12.7 mphOvercast
12:00 PM62.6 °F57.2 °F82 %30.27 in6.2 miNNW (330°)12.7 mphMostly Cloudy
12:30 PM62.6 °F57.2 °F82 %30.27 in6.2 miNNW (340°)13.8 mphOvercast
1:00 PM64.4 °F55.4 °F73 %30.27 in6.2 miNNW (340°)12.7 mphOvercast
1:30 PM64.4 °F55.4 °F73 %30.27 in6.2 miNNW (340°)13.8 mphMostly Cloudy
2:00 PM65.0 °F54.0 °F59 %30.30 in19.0 miNNW (330°)16.1 mphMostly Cloudy
2:00 PM64.4 °F55.4 °F73 %30.30 in6.2 miNNW (330°)16.1 mphMostly Cloudy
2:30 PM66.2 °F55.4 °F68 %30.30 in6.2 miNNW (340°)12.7 mphMostly Cloudy
3:00 PM66.2 °F53.6 °F64 %30.30 in6.2 miNNW (330°)15.0 mphPartly Cloudy
3:30 PM66.2 °F53.6 °F64 %30.30 in6.2 miNNW (340°)11.5 mph
4:00 PM66.2 °F51.8 °F60 %30.30 in6.2 miNorth (350°)12.7 mph
4:30 PM66.2 °F51.8 °F60 %30.30 in6.2 miNorth (350°)10.4 mph
5:00 PM66.2 °F53.6 °F64 %30.30 in6.2 miNorth (350°)10.4 mph
5:30 PM66.2 °F51.8 °F60 %30.30 in6.2 miNNW (340°)11.5 mph
6:00 PM66.2 °F51.8 °F60 %30.30 in6.2 miNNW (340°)11.5 mph
6:30 PM66.2 °F51.8 °F60 %30.30 in6.2 miNorth (350°)8.1 mph
7:00 PM66.2 °F51.8 °F60 %30.30 in6.2 miNorth (350°)8.1 mph
7:30 PM66.2 °F50.0 °F56 %30.30 in6.2 miNNW (340°)10.4 mph
8:00 PM65.0 °F51.0 °F51 %30.31 in37.0 miNorth6.9 mphClear
8:00 PM64.4 °F51.8 °F64 %30.30 in6.2 miNorth (360°)6.9 mph
8:30 PM64.4 °F50.0 °F59 %30.30 in6.2 miNorth (350°)5.8 mph
9:00 PM64.4 °F51.8 °F64 %30.30 in6.2 miNorth (360°)4.6 mph
9:30 PM62.6 °F51.8 °F68 %30.30 in6.2 miNNE (20°)2.3 mph
10:00 PM60.8 °F51.8 °F72 %30.30 in6.2 miVariable2.3 mph
10:30 PM59.0 °F50.0 °F72 %30.33 in6.2 miCalm
11:00 PM55.4 °F50.0 °F82 %30.33 in6.2 miWSW (250°)2.3 mph
11:30 PM53.6 °F50.0 °F88 %30.33 in6.2 miWest (270°)6.9 mph
Hourly data recorded from LFRK, located miles away from Caen, France







STORIES FROM OUR PARTNERS